Latest Coastal Weather Observations for Esperance Harbour

IDW60701

Issued at 7:53 am WST Saturday 25 February 2017 (issued every 10 minutes, with the page automatically refreshed every 10 minutes)

About coastal observations | Map of coastal stations | Coastal observations for WA | Marine services | Other Formats
Station Details ID: 109504 Name: ESPERANCE NTC AWS Lat: -33.87 Lon: 121.90 Height: 0.0 m
Data from the previous 72 hours. | See also: Recent months for locations in Western Australia
Date/Time
WST
Temp
°C
Wind Pressure Rain since
9am
mm
Weather Cloud Vis
km
Sea
Height
m
Swell
Dir  Spd
kts
Gust
kts
hPa Trend Height
m
Period
s
Dir
25/07:30am 18.6 - - - 1021.3 - - - - - - - - -
25/07:00am 18.2 - - - 1021.5 - - - - - - - - -
25/06:30am 17.5 - - - 1021.6 - - - - - - - - -
25/06:00am 17.7 - - - 1021.6 - - - - - - - - -
25/05:30am 17.4 - - - 1021.5 - - - - - - - - -
25/05:00am 17.5 - - - 1021.4 - - - - - - - - -
25/04:30am 17.6 - - - 1021.5 - - - - - - - - -
25/04:00am 17.8 - - - 1021.7 - - - - - - - - -
25/03:30am 17.9 - - - 1021.9 - - - - - - - - -
25/03:00am 17.8 - - - 1022.2 - - - - - - - - -
25/02:30am 18.0 - - - 1022.4 - - - - - - - - -
25/02:00am 18.1 - - - 1022.5 - - - - - - - - -
25/01:30am 18.4 - - - 1022.6 - - - - - - - - -
25/01:00am 18.6 - - - 1022.6 - - - - - - - - -
25/12:30am 18.8 - - - 1022.7 - - - - - - - - -
25/12:00am 18.8 - - - 1022.9 - - - - - - - - -
 
Date/Time
WST
Temp
°C
Wind Pressure Rain since
9am
mm
Weather Cloud Vis
km
Sea
Height
m
Swell
Dir  Spd
kts
Gust
kts
hPa Trend Height
m
Period
s
Dir
24/11:30pm 18.9 - - - 1023.1 - - - - - - - - -
24/11:00pm 18.9 - - - 1023.3 - - - - - - - - -
24/10:30pm 19.1 - - - 1023.4 - - - - - - - - -
24/10:00pm 19.2 - - - 1023.6 - - - - - - - - -
24/09:30pm 19.6 - - - 1023.6 - - - - - - - - -
24/09:00pm 19.8 - - - 1023.5 - - - - - - - - -
24/08:30pm 20.4 - - - 1023.2 - - - - - - - - -
24/08:00pm 20.7 - - - 1022.8 - - - - - - - - -
24/07:30pm 20.9 - - - 1022.4 - - - - - - - - -
24/07:00pm 21.1 - - - 1022.3 - - - - - - - - -
24/06:30pm 21.4 - - - 1022.2 - - - - - - - - -
24/06:00pm 21.8 - - - 1022.2 - - - - - - - - -
24/05:30pm 22.4 - - - 1022.3 - - - - - - - - -
24/05:00pm 23.1 - - - 1022.5 - - - - - - - - -
24/04:30pm 23.3 - - - 1022.6 - - - - - - - - -
24/04:00pm 23.2 - - - 1022.7 - - - - - - - - -
24/03:30pm 22.6 - - - 1022.9 - - - - - - - - -
24/03:00pm 22.4 - - - 1023.1 - - - - - - - - -
24/02:30pm 22.3 - - - 1023.4 - - - - - - - - -
24/02:00pm 22.4 - - - 1023.7 - - - - - - - - -
24/01:30pm 23.1 - - - 1024.1 - - - - - - - - -
24/01:00pm 25.3 - - - 1024.3 - - - - - - - - -
24/12:30pm 24.5 - - - 1024.7 - - - - - - - - -
24/12:00pm 23.5 - - - 1025.2 - - - - - - - - -
24/11:30am 22.9 - - - 1025.7 - - - - - - - - -
24/11:00am 22.1 - - - 1026.3 - - - - - - - - -
24/10:30am 21.2 - - - 1026.7 - - - - - - - - -
24/10:00am 20.5 - - - 1027.2 - - - - - - - - -
24/09:30am 19.6 - - - 1027.6 - - - - - - - - -
24/09:00am 18.9 - - - 1027.7 - - - - - - - - -
24/08:30am 17.9 - - - 1027.9 - - - - - - - - -
24/08:00am 17.4 - - - 1027.9 - - - - - - - - -
24/07:30am 16.8 - - - 1028.1 - - - - - - - - -
24/07:00am 16.4 - - - 1027.9 - - - - - - - - -
24/06:30am 16.6 - - - 1027.7 - - - - - - - - -
24/06:00am 17.0 - - - 1027.3 - - - - - - - - -
24/05:30am 16.9 - - - 1027.2 - - - - - - - - -
24/05:00am 17.0 - - - 1026.9 - - - - - - - - -
24/04:30am 17.4 - - - 1026.7 - - - - - - - - -
24/04:00am 17.0 - - - 1026.5 - - - - - - - - -
24/03:30am 16.9 - - - 1026.3 - - - - - - - - -
24/03:00am 16.7 - - - 1026.3 - - - - - - - - -
24/02:30am 16.8 - - - 1026.3 - - - - - - - - -
24/02:00am 16.8 - - - 1026.4 - - - - - - - - -
24/01:30am 17.0 - - - 1026.2 - - - - - - - - -
24/01:00am 17.8 - - - 1026.1 - - - - - - - - -
24/12:30am 17.8 - - - 1026.0 - - - - - - - - -
24/12:00am 17.8 - - - 1026.0 - - - - - - - - -
 
Date/Time
WST
Temp
°C
Wind Pressure Rain since
9am
mm
Weather Cloud Vis
km
Sea
Height
m
Swell
Dir  Spd
kts
Gust
kts
hPa Trend Height
m
Period
s
Dir
23/11:30pm 17.9 - - - 1025.9 - - - - - - - - -
23/11:00pm 18.1 - - - 1025.9 - - - - - - - - -
23/10:30pm 18.2 - - - 1025.9 - - - - - - - - -
23/10:00pm 18.5 - - - 1025.9 - - - - - - - - -
23/09:30pm 18.9 - - - 1025.8 - - - - - - - - -
23/09:00pm 18.9 - - - 1025.7 - - - - - - - - -
23/08:30pm 19.2 - - - 1025.3 - - - - - - - - -
23/08:00pm 19.4 - - - 1024.9 - - - - - - - - -
23/07:30pm 19.6 - - - 1024.6 - - - - - - - - -
23/07:00pm 19.7 - - - 1024.3 - - - - - - - - -
23/06:30pm 19.9 - - - 1024.1 - - - - - - - - -
23/06:00pm 20.1 - - - 1023.9 - - - - - - - - -
23/05:30pm 20.2 - - - 1023.6 - - - - - - - - -
23/05:00pm 20.3 - - - 1023.4 - - - - - - - - -
23/04:30pm 20.9 - - - 1023.3 - - - - - - - - -
23/04:00pm 21.0 - - - 1023.2 - - - - - - - - -
23/03:30pm 20.5 - - - 1023.1 - - - - - - - - -
23/03:00pm 20.8 - - - 1022.9 - - - - - - - - -
23/02:30pm 21.0 - - - 1023.0 - - - - - - - - -
23/02:00pm 20.8 - - - 1023.0 - - - - - - - - -
23/01:30pm 20.9 - - - 1023.4 - - - - - - - - -
23/01:00pm 20.5 - - - 1023.5 - - - - - - - - -
23/12:30pm 20.6 - - - 1023.4 - - - - - - - - -
23/12:00pm 20.2 - - - 1023.4 - - - - - - - - -
23/11:30am 20.1 - - - 1023.6 - - - - - - - - -
23/11:00am 20.3 - - - 1023.8 - - - - - - - - -
23/10:30am 20.0 - - - 1024.0 - - - - - - - - -
23/10:00am 19.4 - - - 1024.2 - - - - - - - - -
23/09:30am 19.2 - - - 1024.2 - - - - - - - - -
23/09:00am 18.9 - - - 1024.1 - - - - - - - - -
23/08:30am 18.4 - - - 1024.0 - - - - - - - - -
23/08:00am 17.8 - - - 1023.8 - - - - - - - - -
23/07:30am 16.6 - - - 1023.7 - - - - - - - - -
23/07:00am 16.1 - - - 1023.4 - - - - - - - - -
23/06:30am 15.7 - - - 1023.1 - - - - - - - - -
23/06:00am 15.5 - - - 1022.7 - - - - - - - - -
23/05:30am 15.4 - - - 1022.4 - - - - - - - - -
23/05:00am 15.4 - - - 1022.0 - - - - - - - - -
23/04:30am 15.3 - - - 1021.8 - - - - - - - - -
23/04:00am 15.1 - - - 1021.5 - - - - - - - - -
23/03:30am 14.9 - - - 1021.3 - - - - - - - - -
23/03:00am 14.9 - - - 1021.1 - - - - - - - - -
23/02:30am 14.6 - - - 1020.9 - - - - - - - - -
23/02:00am 14.3 - - - 1020.9 - - - - - - - - -
23/01:30am 14.4 - - - 1020.8 - - - - - - - - -
23/01:00am 14.3 - - - 1020.6 - - - - - - - - -
23/12:30am 14.4 - - - 1020.8 - - - - - - - - -
23/12:00am 14.9 - - - 1020.8 - - - - - - - - -
 
Date/Time
WST
Temp
°C
Wind Pressure Rain since
9am
mm
Weather Cloud Vis
km
Sea
Height
m
Swell
Dir  Spd
kts
Gust
kts
hPa Trend Height
m
Period
s
Dir
22/11:30pm 15.2 - - - 1020.7 - - - - - - - - -
22/11:00pm 15.7 - - - 1020.7 - - - - - - - - -
22/10:30pm 15.9 - - - 1021.0 - - - - - - - - -
22/10:00pm 16.2 - - - 1021.1 - - - - - - - - -
22/09:30pm 16.6 - - - 1021.3 - - - - - - - - -
22/09:00pm 16.6 - - - 1021.3 - - - - - - - - -
22/08:30pm 17.6 - - - 1021.2 - - - - - - - - -
22/08:00pm 18.3 - - - 1020.8 - - - - - - - - -
22/07:30pm 18.5 - - - 1020.7 - - - - - - - - -
22/07:00pm 18.4 - - - 1020.3 - - - - - - - - -
22/06:30pm 18.5 - - - 1020.0 - - - - - - - - -
22/06:00pm 18.8 - - - 1019.5 - - - - - - - - -
22/05:30pm 19.0 - - - 1019.4 - - - - - - - - -
22/05:00pm 19.4 - - - 1019.3 - - - - - - - - -
22/04:30pm 19.3 - - - 1019.3 - - - - - - - - -
22/04:00pm 19.8 - - - 1019.2 - - - - - - - - -
22/03:30pm 19.5 - - - 1019.1 - - - - - - - - -
22/03:00pm 19.2 - - - 1019.1 - - - - - - - - -
22/02:30pm 19.5 - - - 1019.1 - - - - - - - - -
22/02:00pm 19.7 - - - 1019.0 - - - - - - - - -
22/01:30pm 19.1 - - - 1018.9 - - - - - - - - -
22/01:00pm 18.4 - - - 1018.9 - - - - - - - - -
22/12:30pm 18.7 - - - 1018.9 - - - - - - - - -
22/12:00pm 18.7 - - - 1018.8 - - - - - - - - -
22/11:30am 18.3 - - - 1018.8 - - - - - - - - -
22/11:00am 18.5 - - - 1018.8 - - - - - - - - -
22/10:30am 18.3 - - - 1018.5 - - - - - - - - -
22/10:00am 17.3 - - - 1018.7 - - - - - - - - -
22/09:30am 17.0 - - - 1018.5 - - - - - - - - -
22/09:00am 18.2 - - - 1017.9 - - - - - - - - -
22/08:30am 17.7 - - - 1017.7 - - - - - - - - -
22/08:00am 17.6 - - - 1017.4 - - - - - - - - -

Other Formats:

Comma delimited format used in spreadsheet applications
http://www.bom.gov.au/fwo/IDW60701/IDW60701.95648.axf

JavaScript Object Notation format (JSON) in row-major order
http://www.bom.gov.au/fwo/IDW60701/IDW60701.95648.json